Weather History for Talkeetna, AK

Change the Weather History Date:

Saturday, February 2, 2013

  Actual Average Record
Temperature  
Mean Temperature 28 °F -  
Max Temperature 35 °F 22 °F 40 °F (1981)
Min Temperature 21 °F 2 °F -42 °F (1999)
Degree Days  
Heating Degree Days 37    
Moisture  
Dew Point 22 °F    
Average Humidity 78    
Maximum Humidity 100    
Minimum Humidity 59    
Precipitation  
Precipitation 0.01 in - - ()
Sea Level Pressure  
Sea Level Pressure 29.60 in    
Wind  
Wind Speed 3 mph (NNE)    
Max Wind Speed 12 mph    
Max Gust Speed 17 mph    
Visibility 9 miles    
Events Snow    
Averages and records for this station are not official NWS values.
T = Trace of Precipitation, MM = Missing Value Source: NWS Daily Summary

Daily Weather History Graph

Daily Weather History Graph

Search for Another Location

Airport:

Trip Planner

Search our weather history database for the weather conditions in past years. The results will help you decide how hot, cold, wet, or windy it might be!

Date:

Astronomy

Feb. 02, 2013 Rise Set
Actual Time 9:23 AM AKST 5:05 PM AKST
Civil Twilight 8:32 AM AKST 5:57 PM AKST
Nautical Twilight 7:37 AM AKST 6:51 PM AKST
Astronomical Twilight 6:45 AM AKST 7:44 PM AKST
Moon 1:41 AM AKST (2/2) 10:14 AM AKST (2/2)
Length of Visible Light 9h 24m
Length of Day
7h 41m
Waning Gibbous, 58% of the Moon is Illuminated
Feb 2
Waning Gibbous
Feb 3
Last Quarter
Feb 9
New
Feb 17
First Quarter
Feb 25
Full

Hourly Weather History & Observations

Time (AKST) Temp. Windchill Dew Point Humidity Pressure Visibility Wind Dir Wind Speed Gust Speed Precip Events Conditions
12:53 AM 24.1 °F - 21.9 °F 91% 29.70 in 10.0 mi Calm Calm - N/A   Scattered Clouds
1:53 AM 25.0 °F 19.3 °F 21.9 °F 88% 29.70 in 10.0 mi SW 4.6 mph - N/A   Partly Cloudy
2:53 AM 23.0 °F - 21.0 °F 92% 29.69 in 10.0 mi Calm Calm - N/A   Overcast
3:53 AM 23.0 °F - 21.0 °F 92% 29.68 in 10.0 mi Calm Calm - N/A   Overcast
4:53 AM 21.9 °F - 21.0 °F 96% 29.68 in 10.0 mi Calm Calm - N/A   Overcast
5:53 AM 23.0 °F - 21.9 °F 96% 29.68 in 10.0 mi Calm Calm - N/A   Overcast
6:53 AM 24.1 °F - 21.9 °F 91% 29.68 in 6.0 mi Calm Calm - 0.00 in Snow Light Snow
7:00 AM 24.8 °F - 23.0 °F 93% 29.65 in 2.5 mi Calm Calm - 0.00 in Snow Light Snow
7:25 AM 24.8 °F 20.5 °F 23.0 °F 93% 29.65 in 3.0 mi North 3.5 mph - 0.01 in Snow Light Snow
7:53 AM 25.0 °F - 23.0 °F 92% 29.67 in 10.0 mi Calm Calm - 0.01 in   Overcast
8:53 AM 24.1 °F - 23.0 °F 96% 29.65 in 10.0 mi Calm Calm - N/A   Mostly Cloudy
9:53 AM 21.0 °F 16.2 °F 21.0 °F 100% 29.65 in 10.0 mi ENE 3.5 mph - N/A   Clear
10:53 AM 28.9 °F 21.9 °F 23.0 °F 78% 29.64 in 10.0 mi NNE 6.9 mph - N/A   Clear
11:53 AM 33.1 °F 24.9 °F 23.0 °F 66% 29.63 in 10.0 mi NNE 10.4 mph 16.1 mph N/A   Partly Cloudy
12:53 PM 33.1 °F 25.5 °F 23.0 °F 66% 29.61 in 10.0 mi NNE 9.2 mph 17.3 mph N/A   Overcast
1:53 PM 34.0 °F 27.2 °F 23.0 °F 64% 29.59 in 10.0 mi North 8.1 mph - N/A   Overcast
2:53 PM 35.1 °F 29.3 °F 24.1 °F 64% 29.56 in 10.0 mi North 6.9 mph - N/A   Overcast
3:53 PM 35.1 °F 31.0 °F 24.1 °F 64% 29.54 in 10.0 mi Variable 4.6 mph - N/A   Overcast
4:53 PM 35.1 °F 27.4 °F 23.0 °F 61% 29.54 in 10.0 mi NNE 10.4 mph - N/A   Overcast
5:53 PM 35.1 °F 28.6 °F 21.9 °F 59% 29.52 in 10.0 mi NNE 8.1 mph - N/A   Overcast
6:53 PM 35.1 °F 28.6 °F 23.0 °F 61% 29.50 in 10.0 mi NNE 8.1 mph - N/A   Overcast
7:53 PM 32.0 °F 27.5 °F 24.1 °F 73% 29.49 in 10.0 mi NNW 4.6 mph - N/A   Scattered Clouds
8:53 PM 32.0 °F 27.5 °F 23.0 °F 69% 29.48 in 10.0 mi North 4.6 mph - N/A   Scattered Clouds
9:53 PM 33.1 °F 25.5 °F 21.0 °F 61% 29.47 in 10.0 mi NNE 9.2 mph - N/A   Partly Cloudy
10:53 PM 33.1 °F 25.5 °F 21.0 °F 61% 29.45 in 10.0 mi NNE 9.2 mph - N/A   Mostly Cloudy
11:53 PM 33.1 °F 24.4 °F 21.0 °F 61% 29.42 in 10.0 mi NNE 11.5 mph - N/A   Clear